Location: Waco, TX
(31.5480°N, 97.1670°W)
Time: 21:28:18
(UTC-05:00)

ISS - Pass Details

Date: 11 August 2018
Orbit: 402 x 409 km, 51.6° (Epoch: 18 August)

Event Time Altitude Azimuth Distance (km) Brightness Sun altitude
Rises 13:25:50 0° 245° (WSW) 2,301 0.1 73.5°
Reaches altitude 10° 13:28:04 10° 257° (WSW) 1,445 -0.8 73.5°
Maximum altitude 13:30:57 29° 320° (NW) 762 -2.2 73.6°
Drops below altitude 10° 13:33:51 10° 23° (NNE) 1,451 -1.1 73.6°
Sets 13:36:06 0° 35° (NE) 2,313 -0.1 73.6°
